{"data":{"norad_id":43440,"intl_designator":"2018-040B","name":"ZHUHAI-1 OVS-02","alt_names":[],"object_type":"PAYLOAD","status":"ACTIVE","operator":null,"country":"PRC","launch_date":"2018-04-26","launch_site_code":"JSC","launch_vehicle":null,"mission":null,"orbit_class":"UNKNOWN","rcs_meters":null,"size_class":null,"mass_kg":null,"dimensions":null,"purposes":[],"wikipedia_slug":null,"has_3d_model":false,"image_url":null,"decayed_at":null,"tle_current":{"epoch":"2026-09-20T04:58:26.998752Z","epoch_age_seconds":81460,"freshness":"FRESH","line1":"1 43440U 18040B   26263.20725693  .00003652  00000+0  14436-3 0  9997","line2":"2 43440  97.0389 274.8663 0001574 290.1592  69.9478 15.26070667467206","mean_motion":15.26070667,"eccentricity":0.0001574,"inclination_deg":97.0389,"raan_deg":274.8663,"arg_perigee_deg":290.1592,"mean_anomaly_deg":69.9478,"bstar":0.00014436,"rev_number":46720,"period_min":94.359981561719,"perigee_km":486.4916438982,"apogee_km":488.6529691879,"semimajor_km":6865.709306543,"source":"CELESTRAK","updated_at":"2026-09-20T09:00:14.321181Z"}}}